Weather in Norvash-Shigali

Russia / Chuvash Republic     55°01′55″N   47°27′31″E
temp.,
°C
wind,
m/s
gust,
m/s
humid.,
%
clouds,
%
prec.,
mm/h
press.,
hPa
HPBL,
m
12 august, fri
fri1200:00+15nne11804 0.0 102411
03:00+14n118475 0.0 102410
06:00+16nw11775 0.0 102546
09:00+20nw2262100 0.0 1025718
12:00+23nw2348100 0.0 10241324
15:00+24nw23434 0.0 10221589
18:00+22nw355941 0.0 1022116
21:00+17wnw22655 0.0 102211
13 august, sat
sat1300:00+16w22706 0.0 102215
03:00+15w33744 0.0 102226
06:00+16wnw247412 0.0 1022115
09:00+22nw335523 0.0 1022499
12:00+25nnw33478 0.0 10211336
15:00+25n4448100 0.0 10211525
18:00+23n2266100 0.0 102048
21:00+19n1175100 0.0 102111
14 august, sun
sun1400:00+18ne2279100 0.0 102112
03:00+16ese227819 0.0 102112
06:00+17ese23745 0.0 102285
09:00+23ese33545 0.0 1021571
12:00+25ese224512 0.0 10211540
15:00+26ese2242100 0.0 10201837
18:00+24se1153100 0.0 102011
21:00+19se22624 0.0 102115
15 august, mon
mon1500:00+18se22670 0.0 102111
03:00+16sse11720 0.0 102111
06:00+18sse11690 0.0 102214
09:00+24ese11520 0.0 1022468
12:00+26ne334321 0.0 10221906
15:00+26nne334418 0.0 10221222
18:00+24n345986 0.0 102293
21:00+21ene23640 0.0 102352
16 august, tue
tue1600:00+17ne22760 0.0 102415
03:00+16ene22710 0.0 102513
06:00+17ene25700 0.0 1025140
09:00+22ene45500 0.0 1026618
12:00+25ene45410 0.0 10251571
15:00+25ene45380 0.0 10241776
18:00+22e37521 0.0 1025180
21:00+17e33560 0.0 102648